星链-31726 (STARLINK-31726 )

导读

STARLINK-31726是美国SpaceX星链星座的卫星,于2024年5月13日发射入轨。星链是美国打造的低轨卫星互联网星座,该卫星承担为全球提供高速互联网接入服务的任务,尤其为偏远地区等网络覆盖不足区域提供连接支持,加入后进一步扩充了星链星座的服务覆盖范围与网络容量。

基本信息
目录编号:
59739
目录名称:
STARLINK-31726
国际标识:
2024-090K
轨道中心:
EARTH
卫星名称:
星链-31726
卫星全名:
星链-31726 (STARLINK-31726 )
卫星状态:
在轨 (已飞行766 天)
发射日期:
2024-05-13 UTC
国别 :
美国 (US)
星等 :
--
轨道信息
数据来源 国际轨道数据
星历时间: 2026-06-17T12:58:40+0800
22小时前
查看轨道信息
半长轴: 6861.174km
偏心率: 0.0001966
轨道倾角: 43.005°
近地点辐角 257.520°
升交点赤经 341.165°
平近点角 102.543°
近地点: 481.688km
远地点: 484.386km
周期: 94.266分钟
每日圈数: 15.275843
详细信息
固有亮度:
5
最大亮度:
1.5
卫星平台:
Starlink v2.0 mini
覆盖范围:
全球
运营商:
太空探索技术公司
运营商所在国:
美国
制造商(研发单位):
太空探索技术公司
制造商所在国:
美国
使用方式:
暂无
卫星简介
星链(Starlink)计划是由太空探索技术公司(SpaceX)提出的一个巨型低轨卫星互联网星座项目,计划在2019年至2024年间在太空搭建由约1.2万颗卫星组成的“星链”网络,其中1584颗将部署在地球上空550千米处的近地轨道,并从2020年开始工作。该卫星仍在工作。
2D轨道图
3D轨道图
轨道高度分析图
轨道倾角分析图
轨道综合分析图
查看轨道综合分析图